Location: ??????
(41.3164°N, 22.6615°E)
Time: 15:29:18
(UTC+00:00)

H-2A R/B - Pass Details

Date: 30 May 2022
Orbit: 576 x 652 km, 98.5° (Epoch: 03 July)

Event Time Altitude Azimuth Distance (km) Brightness Sun altitude
Rises 20:08:04 0° 349° (N) 2,799 6.6 -19.1°
Reaches altitude 10° 20:12:16 10° 307° (NW) 1,900 5.6 -19.5°
Maximum altitude 20:12:49 10° 299° (WNW) 1,885 5.4 -19.6°
Drops below altitude 10° 20:13:22 10° 291° (WNW) 1,902 5.3 -19.6°
Sets 20:17:35 0° 249° (WSW) 2,810 5.6 -20.1°
